Regional Weather Roundup
Issued by NWS Sioux Falls, SD

Home | Current Version | Previous Version | Graphics & Text | Print | Product List | Glossary On
Versions: 1 2 3 4 5 6 7 8 9 10 11 12 13 14 15 16 17 18 19 20 21 22 23 24 25 26 27 28 29 30 31 32 33 34 35 36 37 38 39 40 41 42 43 44 45 46 47 48 49 50
000
ASUS43 KFSD 010410
RWRFSD

WEATHER ROUNDUP FOR SE SOUTH DAKOTA/SW MINNESOTA/NW IOWA
NATIONAL WEATHER SERVICE SIOUX FALLS SD
1100 PM CDT TUE JUN 30 2015

NOTE: "FAIR" INDICATES FEW OR NO CLOUDS BELOW 12,000 FEET WITH NO
SIGNIFICANT WEATHER AND OR OBSTRUCTIONS TO VISIBILITY.


SDZ038>040-050-052>070-010500-
SOUTHEAST SOUTH DAKOTA

CITY           SKY/WX    TMP DP  RH WIND       PRES   REMARKS
BROOKINGS      MOCLDY    66  61  82 E9        29.93R
CHAMBERLAIN    PTCLDY    66  64  93 E6        29.88S
HURON          FOG       68  68 100 CALM      29.88R VSB 1/4
MADISON        FAIR      66  66 100 E9        29.91R
MITCHELL       MOCLDY    67  67 100 CALM      29.88R FOG
SIOUX FALLS    MOCLDY    67  64  90 E5        29.89F
WINNER         FAIR      71  59  65 SE13      29.87R
YANKTON        CLOUDY    68  64  88 E3        29.87S
$$

MNZ071-072-080-081-089-090-097-098-010500-
SOUTHWEST MINNESOTA

CITY           SKY/WX    TMP DP  RH WIND       PRES   REMARKS
FAIRMONT       CLOUDY    64  57  77 E6        29.93F
JACKSON        CLOUDY    64  61  88 E6        29.94F
LUVERNE        PTCLDY    68  63  83 E7        29.92S
MARSHALL       MOCLDY    66  57  72 SE7         N/A
MONTEVIDEO     FAIR      64  61  88 SE3       29.92F
PIPESTONE      PTCLDY    66  61  82 SE7       29.92S
REDWOOD FALLS  MOCLDY    67  60  78 E6        29.92S
TRACY          MOCLDY    66  62  89 SE5       29.92F
WINDOM         MOCLDY    63  59  88 CALM      29.94S
WORTHINGTON    CLOUDY    63  57  82 E6        29.94S
$$

IAZ001>003-012>014-020>022-031-032-NEZ013-014-SDZ071-010500-
NORTHWEST IOWA

CITY           SKY/WX    TMP DP  RH WIND       PRES   REMARKS
CHEROKEE       CLOUDY    68  67  95 E3        29.91F
DENISON        CLOUDY    68  68 100 SE3       29.89F FOG
ESTHERVILLE    CLOUDY    64  61  90 E7        29.92F
LE MARS          N/A     68  68 100 CALM      29.91S FOG
ORANGE CITY    CLOUDY    66  64  94 E5        29.91S
SHELDON        CLOUDY    66  66 100 E9        29.90F
SIOUX CITY     CLOUDY    68  64  87 S5        29.91R
SPENCER        CLOUDY    66  62  87 E6        29.92F
STORM LAKE     CLOUDY    68  64  88 E8        29.93F
$$

ABBREVIATIONS USED IN REMARKS
   TC - TEMPERATURE IN CELSIUS
  WCI - WIND CHILL INDEX
   HX - HEAT INDEX
  VSB - VISIBILITY



USA.gov is the U.S. government's official web portal to all federal, state and local government web resources and services.